Wind_Speed
23 24 26 28 31 33 34 35 36 38 39 39 39 41 42 45 47 48 50 51 49 50 58 59 64 68 70 70 72 75 81 80 82 87 92 99 105 101 98 93 95 88 90 91 91 91 90 93 92 91 91 89 90 95
17 18 20 22 25 27 29 31 32 32 34 35 34 36 38 39 41 42 44 43 43 48 50 52 55 58 60 60 61 65 65 69 72 75 77 86 88 88 91 96 96 91 85 87 89 87 86 85 87 88 87 89 95 96
15 15 16 18 20 22 24 26 27 28 30 29 30 32 34 36 38 40 39 38 41 45 45 45 48 48 48 52 54 55 57 61 64 68 70 72 73 80 84 90 89 88 89 86 83 82 81 82 83 86 93 97 96 93
11 12 14 16 18 18 20 23 24 26 27 28 29 30 32 34 36 36 38 41 41 39 41 43 43 43 43 43 44 48 52 55 59 60 59 61 65 71 73 77 80 82 85 84 83 83 84 86 86 86 85 80 70 65
11 12 12 15 16 18 19 21 23 25 26 28 29 30 31 32 33 34 35 35 35 37 37 37 37 37 38 39 42 42 44 45 48 49 51 54 57 59 61 65 66 66 68 69 70 69 68 67 67 65 60 58 57 54
10 12 13 14 16 18 20 21 22 23 25 26 27 28 29 29 30 30 30 32 33 33 32 35 36 36 36 35 35 37 39 41 44 45 46 47 49 51 50 49 52 54 52 53 53 53 53 53 50 48 49 48 45 42
11 13 14 16 18 19 21 23 23 23 24 25 26 26 28 30 32 33 32 32 31 33 34 33 32 31 30 30 31 34 37 36 37 36 36 42 43 43 42 42 42 42 45 44 43 44 41 40 42 42 39 36 38 40
10 12 15 17 18 19 20 20 21 21 22 23 25 26 28 28 29 30 29 30 29 29 27 27 29 29 27 29 29 30 31 30 30 29 31 31 32 32 33 38 39 38 35 35 32 32 35 37 36 32 33 35 37 37
13 13 15 17 18 20 21 21 22 21 21 21 21 21 24 26 27 27 27 26 25 24 25 25 24 25 27 28 30 28 27 26 26 27 28 28 31 30 34 31 28 25 23 26 30 31 30 28 28 30 33 33 35 41
18 18 18 20 22 24 24 22 22 21 20 20 21 23 23 23 25 25 26 26 26 22 22 24 22 23 28 29 29 26 25 26 26 26 26 26 28 27 20 16 16 20 26 26 23 21 22 25 28 30 31 36 42 47
19 21 23 25 28 31 32 30 29 27 25 24 23 23 24 25 24 24 27 28 30 28 23 17 25 28 27 28 28 27 28 25 23 21 20 20 19 16 15 19 21 19 15 13 15 19 23 27 30 34 39 43 45 43
14 20 25 29 31 34 37 38 37 36 35 33 31 29 29 30 33 35 33 32 31 31 32 32 28 24 27 26 26 24 24 23 23 21 19 17 16 15 12 9 6 6 8 13 18 23 29 33 36 38 38 37 37 40
19 20 24 29 32 34 37 39 41 43 42 40 42 41 38 37 36 35 32 32 34 31 29 30 32 30 30 28 26 25 24 21 19 18 17 15 13 12 8 5 3 9 15 19 22 25 28 29 31 33 35 37 39 42
28 28 28 29 31 33 36 39 41 44 46 44 43 41 38 38 41 39 36 32 28 27 29 32 34 33 32 30 26 23 20 20 20 18 16 17 15 12 9 8 11 13 15 20 24 28 31 33 35 37 38 40 42 44
31 31 32 31 32 33 34 37 39 41 43 45 45 44 44 42 40 36 33 32 31 32 32 32 29 26 25 23 22 21 21 20 18 20 21 18 14 12 10 9 12 15 19 21 25 28 31 33 36 37 39 41 42 43
30 29 29 31 32 32 33 32 33 35 38 42 41 43 40 38 35 35 34 33 32 29 27 25 23 22 22 21 21 22 20 25 24 22 18 15 13 12 10 15 18 20 22 24 26 28 30 32 35 36 37 39 41 44
27 29 24 26 27 29 29 30 30 29 30 32 33 34 35 36 35 33 31 29 28 27 25 24 22 23 24 23 24 28 28 24 20 18 15 12 11 14 18 21 23 24 26 27 27 29 30 32 34 36 37 39 42 44
20 25 22 21 21 21 22 24 23 23 24 25 27 28 30 30 28 27 26 24 23 24 25 27 28 26 27 30 29 26 24 20 17 14 13 12 16 20 23 25 27 28 30 30 30 31 32 34 36 38 39 41 43 46
12 15 16 14 14 13 12 15 16 19 18 19 17 18 20 20 20 21 21 20 20 21 21 21 20 24 24 23 21 18 17 16 14 14 17 20 23 26 27 29 31 32 34 35 35 37 39 39 40 41 42 45 47 49
8 8 10 9 8 7 8 9 9 10 12 12 14 17 18 17 16 17 18 19 21 20 20 20 23 23 24 23 22 20 19 18 17 20 23 26 30 32 33 35 37 39 40 39 40 43 44 45 46 46 47 49 52 53
7 7 6 6 6 6 1 5 7 9 10 14 18 18 18 18 19 19 19 19 21 21 20 22 22 23 24 26 25 23 22 22 24 26 29 32 35 36 38 40 43 44 44 45 47 50 50 51 52 52 54 55 56 57
4 6 9 9 8 8 8 8 12 14 16 16 16 16 17 17 18 20 21 22 22 22 21 22 24 26 26 26 26 25 26 29 31 33 34 37 39 41 44 47 48 49 51 52 54 56 56 56 59 59 59 59 58 59
6 9 9 9 9 10 11 12 14 17 17 17 16 17 18 18 19 21 23 24 25 26 27 28 29 30 30 31 31 32 33 35 37 39 40 42 44 47 50 51 52 55 57 59 60 60 60 61 62 62 61 60 61 61
9 9 12 12 12 13 13 12 13 15 18 20 22 23 23 24 26 26 27 29 31 31 32 33 35 36 37 37 38 39 40 40 42 43 45 47 50 52 54 56 58 61 62 63 63 64 65 64 63 64 64 63 62 60
17 16 17 17 18 18 19 20 21 21 21 22 23 24 24 25 26 27 29 31 32 34 35 35 35 37 39 40 41 42 43 45 47 49 52 54 57 59 61 63 65 64 65 65 65 64 66 66 65 64 63 60 58 55
22 22 24 24 25 26 27 27 28 28 28 28 29 30 31 31 31 33 34 36 36 37 38 39 41 42 44 46 48 50 51 52 54 56 58 60 61 63 66 67 67 67 64 63 64 64 63 62 61 59 57 55 51 48
23 25 27 29 31 32 33 33 34 34 35 37 38 37 36 37 38 40 41 41 42 43 44 46 47 48 50 51 53 54 56 57 59 61 62 64 66 67 68 68 67 59 55 57 58 59 58 56 54 53 50 46 44 43
24 27 28 29 31 33 35 36 39 40 42 43 43 43 44 45 47 49 48 47 49 50 51 51 52 54 55 56 58 59 61 63 64 66 67 68 69 68 63 56 54 51 53 55 56 53 52 53 50 47 45 43 41 40
23 24 26 28 30 33 35 37 38 39 40 41 43 45 46 47 49 50 52 53 54 55 56 57 58 58 60 61 62 63 64 65 65 63 62 61 61 57 51 48 47 49 50 52 49 48 46 44 42 41 41 41 41 40
23 24 25 27 29 31 32 33 34 35 37 40 42 45 46 47 49 49 51 52 52 53 54 55 55 56 57 57 58 58 58 58 58 57 56 50 48 49 49 51 50 48 45 45 46 45 43 42 41 42 41 41 40 40
25 25 26 27 30 31 32 33 34 34 35 36 37 39 40 41 43 45 48 49 51 52 52 52 52 52 52 52 51 52 53 51 50 49 49 49 49 49 48 47 47 47 46 45 44 42 41 41 41 41 41 41 39 39
26 25 26 27 29 29 30 32 34 34 35 36 38 39 40 41 42 42 44 45 46 46 46 46 45 43 42 42 43 44 45 46 48 49 48 48 49 50 49 48 48 47 45 43 42 41 40 39 40 40 39 38 38 37
27 29 28 29 29 29 28 29 31 33 35 37 38 39 41 41 41 44 46 46 46 44 43 42 42 43 43 44 45 46 47 49 47 44 45 46 46 45 45 45 44 42 42 40 40 39 39 38 37 36 36 35 36 36
Wind_Direction
251 248 245 241 238 235 234 232 230 229 228 227 227 227 226 226 226 226 228 230 231 229 231 233 233 234 237 239 238 238 240 242 244 243 244 247 248 249 251 253 254 256 260 263 265 268 271 271 275 277 280 282 286 287
244 241 241 239 233 229 227 224 223 223 221 221 222 222 221 220 220 221 223 223 221 224 225 227 230 233 234 235 236 237 239 239 239 239 241 243 245 245 248 249 253 254 257 258 260 266 271 273 274 278 281 281 281 284
237 232 228 227 226 224 220 216 215 215 213 213 213 213 213 214 213 214 216 216 216 219 220 224 227 229 232 231 232 232 233 233 234 235 237 240 241 241 242 245 249 254 255 258 259 262 266 270 272 272 275 277 281 285
228 223 220 215 210 209 209 209 207 205 204 205 206 206 206 206 207 206 206 209 212 213 214 217 219 222 224 226 227 228 228 228 229 232 233 234 236 241 244 246 248 251 254 259 262 263 265 268 270 271 274 277 278 277
215 211 207 204 200 197 195 196 197 198 196 196 197 197 198 200 200 200 203 206 206 208 211 213 215 217 217 217 218 220 223 224 227 230 232 234 237 239 241 244 248 251 253 257 262 263 263 264 266 269 272 273 273 275
193 193 193 191 192 189 188 186 188 191 191 190 189 190 191 192 192 194 195 198 202 202 202 206 207 211 211 213 214 218 218 217 218 221 224 230 233 237 241 244 248 252 255 255 256 259 261 262 265 268 268 271 278 283
175 175 176 178 179 182 182 179 179 181 182 184 183 184 184 184 185 186 191 194 195 197 198 198 201 202 206 205 211 212 214 212 217 222 225 225 228 233 236 239 242 243 244 249 255 254 259 264 265 267 275 281 281 282
160 166 168 167 169 167 170 169 167 171 174 179 180 181 182 179 182 186 186 191 191 193 195 196 195 194 195 199 201 203 200 201 205 208 214 215 216 218 221 228 232 238 245 247 251 256 258 261 269 276 278 277 281 287
139 150 157 154 156 155 155 159 160 164 167 167 169 167 166 173 176 175 179 182 184 184 185 183 184 195 194 190 187 185 187 189 197 201 205 207 210 210 219 227 236 238 241 248 251 254 262 269 272 273 276 283 290 290
135 139 146 147 147 144 141 143 143 145 149 153 157 161 163 163 164 171 171 171 170 169 174 176 179 187 177 172 170 172 176 182 187 189 191 194 202 213 217 218 228 239 243 248 257 263 268 269 271 278 285 287 285 287
134 136 140 144 144 138 134 136 137 138 141 145 144 140 144 151 148 145 148 149 152 152 147 155 177 171 171 164 168 174 176 179 180 183 187 194 200 201 209 218 224 235 246 259 270 273 277 280 282 283 282 284 286 287
118 137 145 147 144 143 142 141 140 138 136 131 130 136 135 134 143 146 150 149 149 146 158 162 167 165 164 166 169 165 161 164 171 178 187 189 191 198 205 212 218 244 268 275 278 281 281 282 283 283 284 284 283 287
116 125 135 134 132 134 135 134 133 132 128 131 133 134 140 145 148 146 138 144 149 162 167 164 158 155 152 156 161 165 169 173 177 182 181 180 178 170 173 178 242 272 270 271 274 279 282 282 282 281 283 286 290 293
117 122 127 133 138 141 142 141 141 140 140 139 137 136 141 143 135 140 150 152 158 169 159 154 156 161 166 166 165 173 172 178 185 176 171 164 160 163 179 218 254 268 284 286 283 283 284 286 287 288 290 290 291 293
116 119 123 128 131 135 138 139 139 139 139 135 135 137 135 142 149 150 151 156 162 162 162 162 165 168 168 166 166 168 179 186 165 159 160 157 168 194 220 267 290 292 285 286 289 287 285 286 288 288 289 291 292 294
115 118 122 124 125 125 127 130 133 135 137 138 142 144 149 149 149 153 160 163 165 164 166 163 168 170 168 170 173 179 168 151 160 162 166 177 196 221 261 290 292 291 292 293 298 294 290 290 292 294 295 296 297 297
106 109 109 115 119 123 126 129 133 138 140 143 146 146 148 153 159 162 161 164 167 168 165 169 174 176 173 170 163 154 156 166 168 178 189 209 239 265 274 290 298 301 305 303 300 301 300 301 302 300 300 299 300 299
94 108 111 113 117 122 128 132 135 136 139 142 146 151 157 160 162 163 165 168 172 176 178 180 180 174 166 160 159 166 171 175 188 200 222 243 262 271 281 294 298 299 303 303 300 302 303 306 305 304 304 304 303 303
77 95 103 104 108 111 100 109 107 114 111 110 116 131 148 160 166 167 170 174 182 181 181 181 174 162 161 167 176 183 190 194 216 239 251 259 267 276 289 298 301 302 302 303 304 305 306 307 308 309 308 307 307 307
95 101 106 110 106 99 102 104 110 117 123 131 146 163 175 183 181 178 179 184 185 185 182 172 164 168 178 187 193 204 210 221 241 256 261 267 274 284 292 298 303 303 303 305 305 303 305 307 308 311 310 310 309 308
134 140 142 142 142 150 102 118 136 139 166 179 186 188 188 187 184 186 188 191 191 187 182 182 186 195 203 211 218 222 230 241 251 257 263 270 279 287 291 295 298 299 301 302 303 304 306 308 310 311 311 312 310 309
185 174 166 171 172 161 153 153 156 159 174 180 184 186 188 192 191 192 195 194 197 199 198 203 210 216 224 231 237 242 248 253 258 264 268 275 282 287 291 294 296 298 300 301 302 304 307 309 311 311 312 312 309 309
227 217 205 200 191 187 189 187 188 185 187 191 195 198 201 207 208 208 210 214 217 220 222 224 225 232 239 241 245 251 255 261 265 271 277 283 285 287 290 293 295 296 298 299 302 304 306 309 309 311 311 309 308 306
243 230 231 234 227 222 218 217 218 217 213 212 210 212 216 219 220 220 222 224 224 228 231 235 241 244 247 250 252 258 264 269 273 276 279 281 284 287 290 292 293 295 297 300 302 304 307 308 309 308 307 305 303 302
252 247 244 240 236 233 233 233 230 231 229 229 232 236 236 236 239 240 239 241 243 246 250 254 257 259 262 265 266 267 271 275 277 278 281 284 286 288 290 291 293 296 297 299 302 304 306 307 306 304 301 300 301 303
256 253 250 249 247 243 240 237 238 237 236 235 236 238 239 239 240 242 244 247 250 253 256 258 260 262 264 265 267 269 272 275 278 280 282 285 287 289 291 294 294 296 299 302 305 306 306 303 298 298 300 302 304 303
265 260 256 253 250 249 248 246 244 242 241 242 245 247 248 247 248 251 252 252 253 255 257 258 260 262 265 267 270 273 275 277 280 282 284 286 288 290 290 292 296 300 305 308 306 302 297 298 301 303 304 305 304 303
269 264 261 259 257 256 253 251 250 249 248 248 248 247 249 250 251 254 256 257 258 259 261 263 265 266 268 269 271 274 276 278 280 282 284 286 287 290 292 297 303 306 304 299 294 295 300 303 303 304 306 307 305 304
276 271 268 264 261 258 257 256 256 256 256 256 256 255 255 255 255 256 256 257 259 260 262 264 266 268 269 271 273 275 277 279 281 282 283 284 286 292 298 301 298 292 289 291 298 301 299 300 303 304 305 303 303 302
288 282 274 268 263 260 258 256 256 257 256 255 255 256 257 259 260 261 262 263 264 265 266 267 268 270 271 272 274 275 278 279 281 283 286 292 296 294 293 290 291 295 296 296 296 296 298 301 300 302 302 302 302 302
295 287 279 274 269 266 263 260 258 256 255 255 255 257 258 258 259 259 260 261 262 264 265 266 267 268 269 271 273 277 280 281 282 284 286 286 286 288 289 292 293 293 294 295 297 298 299 299 298 297 298 300 301 301
301 294 286 280 274 270 268 268 268 266 263 261 259 258 257 257 259 259 260 261 263 264 264 266 268 270 272 274 276 277 279 279 278 279 283 286 286 286 287 288 290 292 294 295 296 297 297 297 297 298 298 299 299 300
303 299 295 289 284 280 276 271 266 265 264 262 260 260 260 261 261 260 261 262 264 267 268 269 270 271 272 273 273 273 272 274 279 283 282 281 284 286 288 290 292 294 295 294 293 294 295 295 296 297 298 298 298 299
Height
9932 9934 9936 9939 9942 9946 9951 9956 9962 9969 9976 9983 9991 9999 10008 10016 10026 10035 10044 10054 10067 10080 10083 10095 10103 10113 10124 10136 10151 10162 10166 10179 10196 10209 10218 10230 10242 10259 10266 10274 10275 10283 10282 10287 10288 10292 10300 10300 10301 10301 10301 10300 10294 10291
9925 9927 9929 9932 9936 9940 9944 9949 9955 9961 9969 9976 9983 9992 10000 10009 10018 10027 10035 10045 10056 10064 10074 10082 10092 10100 10110 10123 10134 10143 10158 10168 10177 10184 10199 10206 10220 10237 10246 10251 10255 10265 10272 10273 10276 10281 10281 10283 10282 10281 10279 10279 10277 10272
9922 9923 9925 9928 9931 9936 9940 9945 9951 9957 9964 9972 9979 9986 9994 10003 10011 10018 10028 10039 10046 10053 10065 10075 10082 10091 10102 10110 10120 10132 10142 10150 10161 10167 10178 10189 10201 10211 10222 10227 10237 10245 10252 10257 10262 10268 10266 10267 10267 10266 10265 10262 10257 10257
9919 9921 9923 9926 9929 9934 9938 9944 9949 9955 9961 9968 9975 9983 9990 9997 10006 10015 10022 10028 10038 10050 10057 10065 10074 10083 10092 10103 10112 10119 10126 10136 10145 10155 10168 10177 10186 10193 10205 10215 10222 10228 10234 10240 10246 10250 10253 10254 10251 10247 10244 10244 10244 10242
9918 9920 9922 9925 9929 9933 9937 9942 9948 9953 9960 9966 9973 9980 9988 9995 10002 10010 10018 10027 10037 10045 10054 10063 10070 10078 10087 10094 10101 10109 10118 10128 10136 10147 10158 10167 10175 10183 10191 10197 10207 10215 10221 10225 10231 10233 10234 10233 10231 10231 10232 10232 10229 10226
9917 9919 9922 9925 9929 9932 9937 9942 9948 9954 9960 9965 9972 9979 9987 9995 10002 10010 10018 10025 10033 10042 10052 10057 10065 10073 10081 10089 10097 10105 10112 10119 10127 10135 10146 10156 10164 10171 10179 10188 10194 10200 10206 10211 10214 10217 10217 10217 10220 10220 10219 10218 10215 10212
9917 9919 9922 9925 9929 9933 9938 9942 9948 9955 9961 9966 9972 9979 9987 9994 9999 10006 10016 10022 10030 10038 10046 10055 10063 10072 10080 10087 10095 10103 10108 10114 10122 10132 10140 10147 10154 10163 10171 10179 10185 10191 10195 10199 10204 10205 10205 10207 10208 10208 10207 10205 10202 10200
9920 9922 9924 9927 9931 9935 9941 9945 9950 9957 9962 9968 9974 9980 9987 9996 10003 10009 10017 10024 10032 10038 10047 10055 10063 10071 10079 10085 10093 10100 10105 10113 10121 10129 10136 10144 10151 10158 10165 10169 10176 10182 10188 10193 10194 10196 10197 10197 10197 10196 10195 10194 10192 10190
9922 9925 9927 9930 9934 9939 9944 9949 9954 9959 9965 9972 9978 9987 9994 10000 10007 10013 10020 10028 10035 10043 10049 10057 10064 10071 10078 10086 10093 10099 10106 10113 10120 10127 10134 10141 10147 10153 10156 10164 10172 10180 10181 10183 10187 10188 10188 10188 10188 10187 10186 10185 10183 10180
9926 9928 9932 9935 9939 9943 9948 9954 9960 9965 9970 9977 9983 9991 9996 10003 10010 10017 10023 10029 10037 10045 10052 10058 10064 10071 10078 10085 10092 10100 10107 10114 10121 10127 10132 10138 10143 10149 10159 10164 10166 10171 10176 10179 10179 10179 10179 10180 10180 10179 10179 10177 10174 10169
9932 9934 9937 9941 9945 9947 9952 9958 9963 9969 9975 9981 9987 9994 10001 10009 10016 10024 10029 10035 10042 10048 10055 10063 10070 10074 10080 10087 10094 10101 10108 10115 10121 10128 10133 10138 10144 10151 10156 10161 10166 10168 10169 10170 10171 10172 10173 10173 10173 10172 10169 10166 10162 10159
9940 9942 9945 9948 9950 9952 9955 9959 9964 9971 9978 9985 9992 10000 10008 10015 10022 10028 10035 10040 10047 10052 10060 10067 10074 10080 10086 10092 10100 10108 10114 10118 10124 10129 10134 10139 10145 10149 10153 10156 10159 10162 10164 10166 10167 10167 10167 10165 10163 10160 10158 10155 10153 10149
9953 9954 9956 9957 9959 9962 9966 9970 9974 9978 9985 9994 9998 10004 10013 10020 10027 10034 10039 10046 10052 10059 10065 10070 10077 10085 10091 10098 10104 10109 10113 10118 10123 10127 10132 10137 10142 10146 10149 10153 10156 10159 10161 10162 10161 10160 10158 10156 10154 10151 10149 10146 10142 10138
9961 9962 9964 9966 9968 9971 9973 9977 9981 9985 9989 9996 10004 10012 10021 10026 10030 10038 10045 10052 10060 10067 10072 10076 10081 10086 10092 10097 10102 10108 10114 10118 10122 10127 10132 10136 10140 10144 10148 10152 10154 10155 10156 10156 10155 10153 10150 10148 10145 10142 10138 10135 10131 10127
9973 9975 9977 9979 9981 9983 9986 9989 9992 9996 9999 10004 10011 10018 10023 10032 10039 10046 10054 10062 10069 10073 10077 10080 10085 10092 10097 10101 10106 10111 10114 10117 10122 10127 10131 10135 10140 10144 10147 10148 10149 10150 10150 10150 10148 10146 10143 10139 10136 10133 10129 10125 10120 10115
9987 9990 9990 9991 9993 9996 9998 10001 10003 10006 10009 10014 10019 10025 10032 10040 10048 10055 10061 10067 10072 10077 10081 10085 10090 10094 10098 10102 10106 10110 10115 10119 10123 10128 10132 10136 10139 10141 10143 10144 10145 10145 10143 10142 10140 10137 10133 10130 10126 10122 10118 10114 10109 10103
9999 10000 10003 10003 10005 10007 10009 10012 10016 10018 10022 10025 10031 10037 10044 10050 10054 10060 10065 10070 10074 10078 10081 10085 10089 10093 10096 10101 10106 10110 10115 10120 10125 10128 10131 10134 10136 10137 10138 10138 10138 10136 10135 10133 10129 10126 10123 10119 10115 10111 10107 10102 10097 10091
10010 10010 10013 10015 10017 10018 10020 10022 10026 10030 10034 10038 10042 10046 10050 10055 10060 10065 10068 10072 10075 10078 10081 10084 10088 10093 10097 10102 10108 10112 10116 10121 10125 10127 10129 10130 10132 10132 10132 10132 10130 10128 10126 10123 10120 10116 10113 10110 10105 10101 10096 10091 10085 10079
10023 10022 10022 10025 10027 10029 10031 10034 10038 10041 10044 10047 10051 10055 10058 10061 10064 10067 10071 10074 10078 10081 10085 10089 10094 10098 10103 10108 10111 10115 10117 10120 10122 10123 10124 10126 10126 10126 10125 10123 10121 10119 10116 10113 10109 10105 10101 10098 10093 10089 10084 10079 10072 10066
10029 10030 10031 10032 10033 10035 10038 10041 10045 10048 10050 10054 10056 10059 10062 10065 10068 10071 10073 10077 10080 10084 10088 10092 10097 10100 10104 10106 10109 10112 10114 10116 10117 10118 10119 10119 10118 10117 10116 10114 10112 10108 10105 10102 10098 10094 10090 10086 10081 10076 10071 10065 10059 10052
10035 10035 10036 10038 10039 10041 10043 10046 10050 10053 10055 10057 10059 10062 10064 10067 10070 10073 10076 10079 10082 10085 10089 10093 10097 10099 10101 10103 10105 10107 10109 10110 10111 10111 10111 10110 10110 10108 10106 10104 10101 10097 10094 10090 10086 10082 10077 10072 10067 10062 10056 10050 10043 10036
10039 10039 10040 10041 10043 10045 10047 10050 10052 10054 10057 10060 10062 10064 10066 10069 10072 10074 10077 10079 10082 10085 10089 10092 10095 10096 10098 10099 10101 10102 10103 10103 10103 10103 10102 10101 10100 10098 10094 10091 10088 10084 10081 10077 10072 10067 10063 10058 10052 10046 10040 10034 10026 10019
10041 10041 10043 10044 10045 10046 10048 10049 10050 10053 10056 10058 10061 10063 10065 10068 10071 10074 10075 10078 10080 10083 10085 10087 10089 10091 10092 10093 10094 10094 10094 10094 10094 10093 10092 10090 10087 10084 10081 10078 10074 10070 10066 10061 10057 10052 10047 10043 10037 10031 10024 10018 10010 10003
10040 10041 10043 10044 10045 10047 10048 10050 10051 10053 10055 10056 10057 10060 10062 10065 10067 10070 10072 10074 10076 10077 10079 10081 10083 10083 10084 10084 10085 10085 10085 10084 10083 10081 10079 10076 10074 10070 10067 10062 10058 10054 10050 10045 10041 10036 10031 10026 10021 10015 10008 10001 9994 9987
10036 10038 10039 10040 10041 10043 10045 10047 10048 10050 10051 10053 10056 10057 10059 10061 10063 10065 10067 10068 10070 10071 10072 10073 10074 10074 10074 10074 10074 10074 10073 10071 10069 10067 10064 10062 10058 10055 10051 10046 10042 10038 10033 10029 10025 10020 10016 10011 10004 9997 9990 9984 9979 9974
10030 10033 10034 10036 10038 10039 10040 10042 10043 10044 10046 10047 10048 10050 10051 10053 10055 10056 10058 10059 10060 10062 10062 10063 10063 10063 10063 10062 10062 10060 10059 10057 10055 10052 10049 10046 10042 10037 10033 10029 10024 10021 10016 10013 10009 10005 10000 9993 9986 9980 9974 9970 9965 9961
10020 10021 10023 10025 10026 10028 10030 10033 10035 10038 10039 10039 10039 10040 10043 10045 10045 10044 10046 10047 10048 10049 10049 10049 10050 10050 10049 10048 10047 10045 10043 10041 10038 10035 10032 10028 10024 10020 10015 10011 10008 10005 10003 9999 9993 9987 9980 9975 9971 9966 9962 9957 9952 9948
10010 10010 10011 10012 10013 10014 10015 10018 10019 10021 10023 10024 10025 10028 10031 10032 10032 10031 10033 10035 10035 10034 10034 10034 10034 10034 10033 10032 10030 10029 10027 10025 10022 10019 10015 10012 10007 10002 9998 9995 9994 9991 9987 9982 9975 9970 9967 9963 9959 9954 9950 9945 9941 9937
10003 10002 10001 10000 10000 10000 10000 10001 10003 10005 10006 10008 10010 10011 10012 10013 10014 10016 10017 10017 10017 10017 10017 10017 10017 10016 10016 10015 10014 10012 10010 10008 10005 10002 9998 9994 9989 9986 9984 9981 9978 9975 9970 9965 9962 9959 9954 9951 9947 9943 9939 9934 9930 9925
9994 9993 9991 9990 9989 9989 9988 9989 9989 9990 9991 9992 9993 9993 9995 9995 9996 9998 9998 9998 9998 9999 9999 9998 9998 9998 9998 9997 9996 9994 9992 9989 9987 9984 9980 9978 9976 9973 9970 9966 9962 9959 9956 9952 9948 9944 9942 9939 9935 9931 9927 9922 9919 9915
9986 9984 9982 9980 9978 9977 9976 9976 9976 9976 9977 9977 9978 9979 9979 9979 9980 9981 9981 9981 9981 9982 9981 9981 9981 9981 9980 9980 9979 9978 9976 9975 9972 9969 9966 9964 9962 9958 9955 9952 9948 9945 9942 9939 9936 9933 9930 9927 9923 9919 9915 9912 9909 9905
9977 9975 9972 9970 9967 9966 9965 9964 9964 9964 9964 9964 9963 9963 9963 9964 9964 9965 9964 9964 9964 9964 9964 9965 9965 9966 9966 9966 9965 9963 9962 9959 9956 9954 9952 9951 9948 9945 9941 9938 9934 9932 9930 9927 9924 9921 9918 9914 9911 9908 9905 9902 9899 9895
9967 9963 9961 9958 9956 9955 9955 9954 9952 9951 9950 9950 9949 9949 9948 9948 9950 9949 9946 9946 9946 9947 9949 9950 9951 9951 9951 9951 9949 9947 9945 9943 9942 9941 9938 9935 9933 9931 9928 9925 9922 9919 9917 9915 9912 9909 9907 9904 9902 9899 9896 9892 9889 9886